Torna al catalogo

STARLINK-31455

AttivoComunicazioniVLEO
NORAD 59309·PAYLOAD·🇺🇸 United States

Lanciato Mar 24, 2024 da Cape Canaveral Space Force Station

Loading…

Prossimi Passaggi (prossime 24 ore)

TLE

AggiornatoSource: CelesTrak SupGP

Epoca: Sep 15, 2026, 02:12 UTC

1 59309C 24056P   26258.09215278 -.00042021  00000+0 -15221-2 0  2581
2 59309  43.0024 237.8811 0001266 266.3241 244.0151 15.27596654    18

Traccia STARLINK-31455 in tempo reale con AllMySat

Download on the App Store